"Timestamp","TZ","WindDir_Mean (deg)","WindSpd_Mean (km/h)","WindSpd_Min (km/h)","WindSpd_Max (km/h)","Temp_Mean (deg)","RH_Mean (%)","MSLP_Mean (hPa)","Rain_Acc (mm)","Rain_Intensity (mm/h)","Hail_Acc (hits/cm2)","Hail_Intensity (hits/cm2hr)","Solar_Mean (W/m2)"
2020/03/10 00:00:00.012,n,308,1.8,1.44,2.88,19.1,86.5,1016.32,0,0,0,0,0.032234
2020/03/10 00:01:00.001,n,265,5.76,4.32,6.84,19.1,86.4,1016.32,0,0.4,0,0,0.029602
2020/03/10 00:02:00.000,n,197,2.88,1.44,5.4,19.1,86.4,1016.22,0.01,0.3,0,0,0.032234
2020/03/10 00:03:00.000,n,261,5.76,5.04,7.92,19.1,86.4,1016.22,0.02,0.5,0,0,0.0383
2020/03/10 00:04:00.000,n,278,3.96,3.6,4.32,19,86.4,1016.22,0.03,0.4,0,0,0.035706
2020/03/10 00:05:00.009,n,272,7.92,5.76,10.440002,19,86.7,1016.22,0.03,0.4,0,0,0.034866
2020/03/10 00:06:00.007,n,241,5.04,4.32,5.76,19.1,86.7,1016.22,0.04,0.2,0,0,0.036583
2020/03/10 00:07:00.004,n,249,5.04,3.24,5.4,19.1,86.5,1016.22,0.05,0.4,0,0,0.036583
2020/03/10 00:08:00.003,n,245,4.32,4.32,5.04,19.1,86.5,1016.22,0.05,0,0,0,0.03746
2020/03/10 00:09:00.001,n,193,2.16,1.08,3.24,19,86.3,1016.32,0.05,0,0,0,0.034866
2020/03/10 00:10:00.000,n,111,0.72,0.72,1.08,19,86.5,1016.32,0.05,0.3,0,0,0.034866
2020/03/10 00:11:00.000,n,212,2.52,1.44,3.24,19,86.5,1016.32,0.06,0.1,0,0,0.034866
2020/03/10 00:12:00.000,n,242,1.08,0.36,2.16,19,86.5,1016.32,0.06,0,0,0,0.033951
2020/03/10 00:13:00.000,n,286,6.84,5.4,7.2,19,86.4,1016.42,0.06,0,0,0,0.036583
2020/03/10 00:14:00.006,n,267,2.52,1.44,2.88,19,86.6,1016.42,0.06,0.1,0,0,0.034866
2020/03/10 00:15:00.005,n,210,2.88,2.52,3.6,19.1,86.6,1016.42,0.06,0.2,0,0,0.030518
2020/03/10 00:16:00.003,n,0,1.8,0.72,2.52,19.1,86.5,1016.42,0.06,0,0,0,0.035706
2020/03/10 00:17:00.000,n,306,1.8,0.36,3.96,19.1,86.6,1016.42,0.06,0,0,0,0.033951
2020/03/10 00:18:00.015,n,126,1.08,0.72,1.8,19.1,86.7,1016.42,0.06,0,0,0,0.030518
2020/03/10 00:19:00.000,n,221,1.8,1.08,2.16,19.1,86.7,1016.52,0.06,0,0,0,0.032234
2020/03/10 00:20:00.000,n,161,2.52,1.44,3.24,19.1,86.7,1016.52,0.06,0,0,0,0.031357
2020/03/10 00:21:00.000,n,193,4.32,3.6,5.04,19.1,86.5,1016.52,0.12,2.9,0,0,0.026131
2020/03/10 00:22:00.005,n,182,0.72,0,1.08,19.1,86.4,1016.52,0.13,1,0,0,0.028725
2020/03/10 00:23:00.002,n,156,2.16,1.8,2.88,19.1,86.5,1016.52,0.13,0,0,0,0.029602
2020/03/10 00:24:00.000,n,264,3.6,2.88,4.68,19.1,86.8,1016.52,0.13,0,0,0,0.029602
2020/03/10 00:25:00.000,n,124,3.6,2.88,3.96,19.1,86.7,1016.52,0.13,0,0,0,0.031357
2020/03/10 00:26:00.012,n,166,1.8,1.08,2.88,19.1,86.4,1016.52,0.13,0,0,0,0.028725
2020/03/10 00:27:00.008,n,243,1.8,1.8,2.16,19.1,86.5,1016.52,0.13,0,0,0,0.032234
2020/03/10 00:28:00.000,n,259,2.16,1.08,2.52,19,86.3,1016.52,0.13,0,0,0,0.030518
2020/03/10 00:29:00.004,n,225,4.32,3.6,4.68,19,86.2,1016.52,0.13,0,0,0,0.030518
2020/03/10 00:30:00.001,n,203,2.16,1.08,2.52,19,86.3,1016.52,0.13,0,0,0,0.026131
2020/03/10 00:31:00.000,n,336,1.08,0.72,1.8,19,86.4,1016.52,0.13,0,0,0,0.028725
2020/03/10 00:32:00.000,n,209,5.4,5.04,6.12,19,86.4,1016.52,0.13,0,0,0,0.031357
2020/03/10 00:33:00.011,n,184,3.96,2.88,4.68,19,86.3,1016.52,0.13,0,0,0,0.030518
2020/03/10 00:34:00.007,n,216,3.24,2.88,3.96,19,86.6,1016.52,0.13,0,0,0,0.029602
2020/03/10 00:35:00.005,n,155,5.04,3.96,6.48,19,86.6,1016.42,0.13,0,0,0,0.033951
2020/03/10 00:36:00.004,n,224,4.68,4.32,4.68,19,86.5,1016.52,0.13,0,0,0,0.027885
2020/03/10 00:37:00.001,n,200,3.6,1.8,5.76,19,86.4,1016.52,0.13,0,0,0,0.028725
2020/03/10 00:38:00.000,n,196,5.04,4.68,5.4,19,86.3,1016.42,0.13,0,0,0,0.033112
2020/03/10 00:39:00.000,n,230,2.88,2.52,3.24,18.9,86.4,1016.42,0.13,0,0,0,0.029602
2020/03/10 00:40:00.000,n,189,3.6,2.88,5.04,18.9,86.5,1016.42,0.13,0,0,0,0.029602
2020/03/10 00:41:00.008,n,276,3.6,3.24,3.96,18.9,86.5,1016.42,0.13,0,0,0,0.031357
2020/03/10 00:42:00.005,n,10,1.8,0.72,3.24,19,86.8,1016.32,0.13,0,0,0,0.033112
2020/03/10 00:43:00.003,n,248,3.6,3.24,3.96,19,86.7,1016.32,0.13,0,0,0,0.032234
2020/03/10 00:44:00.000,n,201,2.52,2.52,2.88,19,86.5,1016.32,0.13,0,0,0,0.025291
2020/03/10 00:45:00.013,n,172,7.2,6.48,8.28,19,86.6,1016.32,0.13,0,0,0,0.030518
2020/03/10 00:46:00.000,n,228,2.88,2.88,3.24,19,86.5,1016.42,0.13,0,0,0,0.029602
2020/03/10 00:47:00.000,n,192,2.16,0.72,3.24,19,86.4,1016.42,0.13,0,0,0,0.027885
2020/03/10 00:48:00.005,n,208,5.04,5.04,5.4,18.9,86.4,1016.42,0.13,0,0,0,0.026131
2020/03/10 00:49:00.002,n,271,3.6,2.88,3.96,18.9,86.4,1016.42,0.13,0,0,0,0.027008
2020/03/10 00:50:00.000,n,233,3.6,2.88,3.96,19,86.5,1016.42,0.13,0,0,0,0.027008
2020/03/10 00:51:00.000,n,258,2.52,1.44,3.6,18.9,86.5,1016.42,0.13,0,0,0,0.022659
2020/03/10 00:52:00.012,n,205,1.08,0.72,1.44,18.9,86.6,1016.42,0.13,0,0,0,0.030518
2020/03/10 00:53:00.010,n,270,2.52,1.08,3.6,18.9,86.5,1016.42,0.13,0,0,0,0.029602
2020/03/10 00:54:00.006,n,255,2.88,2.16,3.24,18.9,86.6,1016.42,0.13,0,0,0,0.026131
2020/03/10 00:55:00.000,n,270,3.96,2.88,5.04,18.9,86.5,1016.32,0.13,0,0,0,0.026131
2020/03/10 00:56:00.002,n,282,3.24,2.52,3.96,18.9,86.4,1016.32,0.13,0,0,0,0.024376
2020/03/10 00:57:00.000,n,149,0.72,0.36,1.08,18.9,86.5,1016.32,0.13,0,0,0,0.024376
2020/03/10 00:58:00.000,n,236,3.24,1.44,4.32,18.9,86.4,1016.32,0.13,0,0,0,0.021782
2020/03/10 00:59:00.009,n,267,4.68,3.96,5.4,18.9,86.4,1016.32,0.13,0,0,0,0.029602
2020/03/10 01:00:00.006,n,241,2.16,0.36,3.24,18.9,86.6,1016.32,0.13,0,0,0,0.025291
2020/03/10 01:01:00.003,n,213,1.8,1.44,2.16,18.9,86.5,1016.32,0.13,0,0,0,0.026131
2020/03/10 01:02:00.001,n,298,1.44,1.08,2.16,18.9,86.8,1016.32,0.13,0,0,0,0.030518
2020/03/10 01:03:00.017,n,256,1.44,0.72,2.16,18.9,86.6,1016.32,0.13,0,0,0,0.020943
2020/03/10 01:04:00.000,n,244,6.12,5.4,6.84,18.9,86.4,1016.32,0.13,0,0,0,0.027885
2020/03/10 01:05:00.000,n,204,1.8,1.08,2.52,18.9,86.6,1016.32,0.13,0,0,0,0.029602
2020/03/10 01:06:00.000,n,227,3.6,2.16,4.68,18.9,86.5,1016.32,0.13,0,0,0,0.027008
2020/03/10 01:07:00.000,n,160,6.48,3.96,8.28,18.9,86.5,1016.32,0.13,0,0,0,0.024376
2020/03/10 01:08:00.005,n,205,3.6,2.88,3.6,18.9,86.5,1016.32,0.13,0,0,0,0.027008
2020/03/10 01:09:00.002,n,245,2.52,2.16,2.88,18.9,86.7,1016.32,0.13,0,0,0,0.027008
2020/03/10 01:10:00.000,n,238,4.68,3.6,5.4,18.9,86.7,1016.32,0.13,0,0,0,0.026131
2020/03/10 01:11:00.013,n,198,6.12,2.16,8.28,18.9,86.6,1016.32,0.13,0,0,0,0.030518
2020/03/10 01:12:00.009,n,252,2.52,1.44,2.88,18.9,86.5,1016.32,0.13,0,0,0,0.024376
2020/03/10 01:13:00.000,n,211,2.16,1.8,2.52,18.9,86.4,1016.32,0.13,0,0,0,0.027008
2020/03/10 01:14:00.004,n,274,3.24,1.8,3.6,18.9,86.6,1016.32,0.13,0,0,0,0.025291
2020/03/10 01:15:00.000,n,286,5.76,4.68,7.2,18.9,86.4,1016.32,0.13,0,0,0,0.030518
2020/03/10 01:16:00.000,n,259,5.04,4.68,5.4,18.8,86.3,1016.32,0.13,0,0,0,0.022659
2020/03/10 01:17:00.000,n,183,1.8,1.44,2.16,18.8,86.4,1016.42,0.13,0,0,0,0.029602
2020/03/10 01:18:00.009,n,145,1.44,1.08,2.16,18.8,86.7,1016.42,0.13,0,0,0,0.029602
2020/03/10 01:19:00.007,n,164,3.6,2.88,5.04,18.8,86.5,1016.32,0.13,0,0,0,0.026131
2020/03/10 01:20:00.004,n,188,8.64,7.56,9.36,18.8,86.3,1016.42,0.13,0,0,0,0.026131
2020/03/10 01:21:00.001,n,161,3.96,1.08,7.56,18.8,86.3,1016.32,0.14,0.2,0,0,0.030518
2020/03/10 01:22:00.000,n,173,8.28,6.12,9.36,18.8,86.2,1016.32,0.16,0.8,0,0,0.027008
2020/03/10 01:23:00.000,n,207,7.92,6.48,9,18.7,86.2,1016.32,0.16,1,0,0,0.034828
2020/03/10 01:24:00.000,n,198,5.4,3.24,7.2,18.7,86.3,1016.22,0.16,0,0,0,0.03746
2020/03/10 01:25:00.005,n,196,4.32,3.6,5.4,18.7,86.4,1016.22,0.2,2,0,0,0.035706
2020/03/10 01:26:00.002,n,197,6.48,6.48,6.84,18.7,86.5,1016.22,0.2,0,0,0,0.039177
2020/03/10 01:27:00.000,n,215,2.16,1.08,3.24,18.8,86.5,1016.22,0.2,0,0,0,0.0383
2020/03/10 01:28:00.000,n,195,2.16,2.16,2.52,18.8,86.7,1016.22,0.2,0,0,0,0.035706
2020/03/10 01:29:00.012,n,226,1.44,1.08,2.52,18.8,86.8,1016.22,0.2,0,0,0,0.035706
2020/03/10 01:30:00.008,n,170,5.76,3.6,7.2,18.8,86.6,1016.22,0.2,0,0,0,0.036583
2020/03/10 01:31:00.000,n,173,7.2,6.48,7.56,18.8,86.6,1016.12,0.2,0,0,0,0.033112
2020/03/10 01:32:00.002,n,272,2.88,2.52,3.96,18.8,86.7,1016.12,0.2,0,0,0,0.034828
2020/03/10 01:33:00.000,n,185,6.48,5.76,7.2,18.8,86.8,1016.12,0.2,0,0,0,0.032234
2020/03/10 01:34:00.000,n,179,5.4,4.68,5.76,18.8,86.6,1016.12,0.21,0.6,0,0,0.036583
2020/03/10 01:35:00.000,n,199,2.52,2.16,2.88,18.8,86.9,1016.12,0.21,0,0,0,0.033951
2020/03/10 01:36:00.008,n,186,5.04,4.32,5.76,18.8,86.7,1016.12,0.21,0.1,0,0,0.035706
2020/03/10 01:37:00.006,n,50,1.8,0.72,2.88,18.8,86.7,1016.12,0.21,0,0,0,0.033951
2020/03/10 01:38:00.003,n,195,5.76,4.68,7.2,18.8,86.6,1016.12,0.21,0,0,0,0.036583
2020/03/10 01:39:00.017,n,197,6.12,4.32,9,18.8,86.6,1016.12,0.21,0,0,0,0.033112
2020/03/10 01:40:00.000,n,194,9.36,8.64,9.72,18.7,86.5,1016.12,0.21,0,0,0,0.032234
2020/03/10 01:41:00.000,n,165,7.92,5.76,8.64,18.7,86.7,1016.12,0.21,0,0,0,0.033951
2020/03/10 01:42:00.000,n,154,4.68,3.6,5.4,18.7,86.8,1016.12,0.21,0,0,0,0.033112
2020/03/10 01:43:00.007,n,185,6.48,5.76,6.84,18.7,86.8,1016.12,0.25,2.2,0,0,0.035706
2020/03/10 01:44:00.005,n,172,4.68,2.88,6.12,18.7,86.8,1016.12,0.25,0,0,0,0.034828
2020/03/10 01:45:00.003,n,203,5.4,4.32,6.84,18.7,86.8,1016.12,0.25,0,0,0,0.033112
2020/03/10 01:46:00.001,n,165,3.6,2.88,5.04,18.7,86.8,1016.12,0.25,0,0,0,0.033112
2020/03/10 01:47:00.001,n,185,10.08,8.28,11.52,18.7,86.8,1016.12,0.25,0,0,0,0.029602
2020/03/10 01:48:00.014,n,176,8.64,7.92,9.72,18.7,86.8,1016.12,0.26,0,0,0,0.029602
2020/03/10 01:49:00.000,n,204,2.52,2.16,2.88,18.7,86.9,1016.12,0.26,0.2,0,0,0.033112
2020/03/10 01:50:00.000,n,151,7.56,2.16,9.72,18.7,86.9,1016.12,0.26,0,0,0,0.033951
2020/03/10 01:51:00.000,n,223,7.2,3.6,10.8,18.7,86.8,1016.02,0.26,0,0,0,0.029602
2020/03/10 01:52:00.005,n,203,11.52,10.08,12.96,18.6,86.8,1016.02,0.26,0,0,0,0.034828
2020/03/10 01:53:00.003,n,182,10.440002,9.72,11.16,18.6,86.8,1016.02,0.26,0,0,0,0.031357
2020/03/10 01:54:00.002,n,205,5.76,5.4,6.48,18.6,86.9,1016.02,0.26,0,0,0,0.029602
2020/03/10 01:55:00.000,n,208,6.48,5.4,8.28,18.6,87,1016.02,0.26,0.1,0,0,0.033112
2020/03/10 01:56:00.015,n,224,1.44,0.36,2.88,18.6,87.1,1016.02,0.26,0,0,0,0.034828
2020/03/10 01:57:00.013,n,144,1.08,0.36,1.8,18.7,87.1,1016.02,0.26,0.1,0,0,0.027885
2020/03/10 01:58:00.000,n,203,2.16,1.08,3.24,18.7,87.1,1016.02,0.26,0,0,0,0.029602
2020/03/10 01:59:00.000,n,171,4.32,3.24,6.48,18.7,87,1016.02,0.26,0,0,0,0.034828
2020/03/10 02:00:00.000,n,202,7.92,7.2,9,18.6,87,1015.92,0.26,0,0,0,0.028725
2020/03/10 02:01:00.004,n,200,7.92,7.56,9,18.6,87.1,1015.92,0.26,0,0,0,0.024376
2020/03/10 02:02:00.001,n,136,3.96,1.8,7.2,18.6,86.9,1015.92,0.26,0,0,0,0.027008
2020/03/10 02:03:00.000,n,172,6.48,5.76,7.56,18.6,87.1,1015.92,0.26,0,0,0,0.031357
2020/03/10 02:04:00.012,n,178,7.92,6.48,9.36,18.6,87.1,1015.92,0.26,0,0,0,0.026131
2020/03/10 02:05:00.010,n,184,10.440002,9,11.88,18.6,87.1,1015.92,0.26,0,0,0,0.028725
2020/03/10 02:06:00.007,n,173,7.56,4.32,9.36,18.6,87.1,1015.82,0.26,0,0,0,0.028725
2020/03/10 02:07:00.000,n,211,13.32,11.16,14.04,18.6,87,1015.92,0.26,0,0,0,0.025253
2020/03/10 02:08:00.002,n,161,5.76,2.88,9.36,18.6,87.1,1015.82,0.26,0,0,0,0.022659
2020/03/10 02:09:00.000,n,181,14.04,12.96,15.48,18.6,87,1015.82,0.26,0,0,0,0.025253
2020/03/10 02:10:00.000,n,120,2.88,1.08,7.56,18.6,87.1,1015.82,0.26,0,0,0,0.024376
2020/03/10 02:11:00.010,n,196,6.12,4.32,7.92,18.6,87.2,1015.82,0.26,0,0,0,0.027885
2020/03/10 02:12:00.006,n,184,10.08,9,10.8,18.6,87.1,1015.72,0.26,0,0,0,0.024376
2020/03/10 02:13:00.003,n,160,9,8.28,9.36,18.6,87.1,1015.72,0.26,0,0,0,0.023537
2020/03/10 02:14:00.000,n,173,6.48,5.4,7.92,18.6,87.1,1015.72,0.26,0,0,0,0.025253
2020/03/10 02:15:00.015,n,127,4.32,3.6,5.4,18.6,87.3,1015.72,0.26,0,0,0,0.025215
2020/03/10 02:16:00.000,n,169,4.68,4.32,5.76,18.6,87.3,1015.62,0.26,0,0,0,0.028725
2020/03/10 02:17:00.000,n,166,8.28,7.56,9.36,18.6,87.4,1015.62,0.26,0,0,0,0.029564
2020/03/10 02:18:00.003,n,215,3.24,2.16,3.96,18.6,87.3,1015.52,0.26,0,0,0,0.031319
2020/03/10 02:19:00.001,n,209,5.76,4.68,7.2,18.6,87.5,1015.52,0.26,0,0,0,0.029564
2020/03/10 02:20:00.000,n,198,11.16,9.72,12.96,18.6,86.9,1015.52,0.26,0,0,0,0.028725
2020/03/10 02:21:00.000,n,199,9.72,7.56,11.16,18.6,87,1015.52,0.26,0,0,0,0.026932
2020/03/10 02:22:00.009,n,184,6.12,5.76,8.28,18.6,87.2,1015.52,0.26,0,0,0,0.026093
2020/03/10 02:23:00.005,n,167,5.04,3.96,6.48,18.6,87.1,1015.52,0.26,0,0,0,0.024376
2020/03/10 02:24:00.002,n,174,7.92,7.56,8.28,18.5,87.2,1015.52,0.26,0,0,0,0.025215
2020/03/10 02:25:00.000,n,209,5.4,4.68,6.12,18.6,87.2,1015.52,0.26,0,0,0,0.028725
2020/03/10 02:26:00.000,n,187,5.76,2.52,7.56,18.6,87.2,1015.42,0.26,0,0,0,0.026093
2020/03/10 02:27:00.000,n,187,11.88,11.52,12.24,18.5,86.9,1015.32,0.26,0,0,0,0.025215
2020/03/10 02:28:00.000,n,180,7.56,5.04,10.08,18.5,87.1,1015.32,0.26,0,0,0,0.024376
2020/03/10 02:29:00.009,n,166,2.88,2.52,3.6,18.5,87.2,1015.32,0.26,0,0,0,0.029564
2020/03/10 02:30:00.005,n,168,5.04,3.96,6.48,18.6,87.3,1015.32,0.26,0,0,0,0.026093
2020/03/10 02:31:00.002,n,144,7.2,5.04,8.28,18.5,87,1015.32,0.26,0,0,0,0.023499
2020/03/10 02:32:00.000,n,155,6.48,4.32,8.28,18.5,86.8,1015.32,0.26,0,0,0,0.026093
2020/03/10 02:33:00.013,n,118,9.36,7.92,10.440002,18.5,86.9,1015.22,0.26,0,0,0,0.026932
2020/03/10 02:34:00.000,n,162,6.12,1.8,9.72,18.5,87.2,1015.32,0.26,0,0,0,0.020866
2020/03/10 02:35:00.000,n,212,6.84,4.68,7.92,18.5,87.1,1015.32,0.26,0,0,0,0.033951
2020/03/10 02:36:00.004,n,222,5.04,1.44,7.2,18.5,87.1,1015.32,0.26,0,0,0,0.039177
2020/03/10 02:37:00.003,n,177,10.8,10.08,11.52,18.5,86.9,1015.32,0.26,0,0,0,0.032234
2020/03/10 02:38:00.000,n,174,11.88,10.08,12.24,18.5,87,1015.32,0.26,0,0,0,0.033951
2020/03/10 02:39:00.000,n,128,2.52,0.72,5.04,18.5,87.1,1015.32,0.26,0,0,0,0.036545
2020/03/10 02:40:00.010,n,193,5.76,5.04,6.84,18.5,87.2,1015.32,0.26,0,0,0,0.031319
2020/03/10 02:41:00.007,n,174,12.6,11.52,14.4,18.5,87.1,1015.22,0.26,0,0,0,0.039177
2020/03/10 02:42:00.004,n,182,8.64,7.92,9.72,18.5,87.1,1015.22,0.26,0,0,0,0.036545
2020/03/10 02:43:00.002,n,204,2.88,2.52,2.88,18.5,87.2,1015.22,0.26,0,0,0,0.036545
2020/03/10 02:44:00.001,n,177,11.16,10.8,11.88,18.5,87,1015.22,0.26,0,0,0,0.034828
2020/03/10 02:45:00.000,n,195,6.84,5.76,7.92,18.5,87.1,1015.22,0.26,0,0,0,0.03746
2020/03/10 02:46:00.000,n,200,6.12,5.76,6.12,18.5,87.1,1015.22,0.26,0,0,0,0.032234
2020/03/10 02:47:00.010,n,177,7.2,6.12,7.92,18.5,87.1,1015.22,0.26,0,0,0,0.029602
2020/03/10 02:48:00.006,n,162,6.48,5.4,7.2,18.5,87.1,1015.22,0.26,0,0,0,0.029602
2020/03/10 02:49:00.003,n,176,8.28,7.2,9.72,18.5,87.1,1015.22,0.26,0,0,0,0.030479
2020/03/10 02:50:00.000,n,124,2.88,1.08,4.32,18.5,87.2,1015.32,0.26,0,0,0,0.029602
2020/03/10 02:51:00.013,n,163,12.6,10.08,14.4,18.5,87.2,1015.22,0.26,0,0,0,0.034828
2020/03/10 02:52:00.000,n,212,7.92,7.56,8.64,18.5,87.2,1015.32,0.26,0,0,0,0.031319
2020/03/10 02:53:00.000,n,195,10.08,9,11.16,18.5,87.2,1015.22,0.26,0,0,0,0.033073
2020/03/10 02:54:00.000,n,163,11.52,10.440002,12.6,18.5,87.2,1015.32,0.26,0,0,0,0.03746
2020/03/10 02:55:00.004,n,161,6.12,5.04,6.84,18.5,87.2,1015.32,0.26,0,0,0,0.031319
2020/03/10 02:56:00.000,n,135,1.44,0.36,2.88,18.5,87.3,1015.32,0.26,0,0,0,0.034828
2020/03/10 02:57:00.000,n,156,7.2,3.96,8.64,18.6,87.3,1015.32,0.26,0,0,0,0.033951
2020/03/10 02:58:00.013,n,178,3.6,2.88,3.96,18.6,87.3,1015.32,0.26,0,0,0,0.032234
2020/03/10 02:59:00.010,n,119,2.52,1.8,3.6,18.6,87.3,1015.32,0.26,0,0,0,0.033073
2020/03/10 03:00:00.007,n,191,5.4,4.68,5.76,18.6,87.3,1015.32,0.26,0,0,0,0.033073
2020/03/10 03:01:00.000,n,159,3.6,3.24,3.96,18.6,87.3,1015.32,0.26,0,0,0,0.036545
2020/03/10 03:02:00.002,n,184,4.68,4.32,5.04,18.6,87.2,1015.32,0.26,0,0,0,0.033951
2020/03/10 03:03:00.000,n,180,2.88,1.08,5.76,18.6,87.3,1015.32,0.26,0,0,0,0.034828
2020/03/10 03:04:00.000,n,184,6.48,6.12,6.84,18.6,87.3,1015.32,0.26,0,0,0,0.030479
2020/03/10 03:05:00.000,n,168,5.4,3.96,7.2,18.6,87.3,1015.32,0.26,0,0,0,0.030479
2020/03/10 03:06:00.008,n,152,4.68,3.6,6.12,18.6,87.3,1015.32,0.26,0,0,0,0.033951
2020/03/10 03:07:00.005,n,201,5.04,4.68,5.4,18.6,87.2,1015.32,0.26,0,0,0,0.033073
2020/03/10 03:08:00.003,n,158,10.440002,9.72,11.16,18.6,87,1015.32,0.26,0,0,0,0.031319
2020/03/10 03:09:00.000,n,92,2.52,0.36,3.96,18.6,87.1,1015.32,0.26,0,0,0,0.036545
2020/03/10 03:10:00.000,n,110,5.4,3.96,6.12,18.6,87.1,1015.32,0.26,0,0,0,0.035667
2020/03/10 03:11:00.000,n,117,3.24,2.16,3.96,18.6,87.1,1015.42,0.26,0,0,0,0.034828
2020/03/10 03:12:00.000,n,129,4.32,3.6,4.68,18.6,87.2,1015.42,0.26,0,0,0,0.0383
2020/03/10 03:13:00.007,n,168,3.96,3.96,4.32,18.6,87.2,1015.42,0.26,0,0,0,0.03746
2020/03/10 03:14:00.003,n,177,5.76,5.04,6.84,18.6,87.1,1015.42,0.26,0,0,0,0.035667
2020/03/10 03:15:00.002,n,142,5.76,4.68,6.84,18.6,87.1,1015.42,0.3,1.9,0,0,0.033951
2020/03/10 03:16:00.001,n,183,7.56,6.48,8.64,18.6,87.2,1015.42,0.3,0.2,0,0,0.033951
2020/03/10 03:17:00.000,n,173,11.16,10.440002,12.24,18.6,87.1,1015.42,0.3,0.2,0,0,0.036545
2020/03/10 03:18:00.013,n,181,10.440002,7.56,12.96,18.5,87.1,1015.32,0.31,0.2,0,0,0.033951
2020/03/10 03:19:00.000,n,178,5.04,3.96,5.76,18.5,87.1,1015.32,0.31,0,0,0,0.033951
2020/03/10 03:20:00.000,n,178,8.28,6.84,9.36,18.5,87.2,1015.32,0.31,0,0,0,0.035667
2020/03/10 03:21:00.000,n,216,6.84,6.12,7.92,18.5,87.3,1015.32,0.31,0.3,0,0,0.036545
2020/03/10 03:22:00.004,n,192,6.48,5.04,9.72,18.5,87.3,1015.22,0.31,0,0,0,0.029602
2020/03/10 03:23:00.001,n,199,4.32,3.6,5.4,18.5,87.3,1015.22,0.31,0,0,0,0.033951
2020/03/10 03:24:00.000,n,186,3.24,2.16,3.96,18.5,87.5,1015.22,0.31,0,0,0,0.028725
2020/03/10 03:25:00.011,n,188,4.68,3.24,5.76,18.5,87.4,1015.22,0.31,0,0,0,0.030479
2020/03/10 03:26:00.008,n,218,5.4,4.32,6.48,18.6,87.4,1015.22,0.31,0,0,0,0.03746
2020/03/10 03:27:00.007,n,193,6.84,6.12,7.2,18.6,87.3,1015.22,0.31,0,0,0,0.034828
2020/03/10 03:28:00.000,n,166,6.12,2.52,8.28,18.5,87.4,1015.22,0.31,0,0,0,0.036545
2020/03/10 03:29:00.002,n,184,8.28,7.56,8.64,18.5,87.4,1015.32,0.31,0,0,0,0.035667
2020/03/10 03:30:00.000,n,154,3.24,2.16,3.6,18.5,87.4,1015.32,0.31,0,0,0,0.035667
2020/03/10 03:31:00.000,n,147,4.32,3.6,5.04,18.5,87.4,1015.32,0.31,0,0,0,0.031319
2020/03/10 03:32:00.000,n,177,2.52,1.08,3.96,18.5,87.4,1015.32,0.31,0,0,0,0.032234
2020/03/10 03:33:00.008,n,203,3.24,2.52,3.6,18.5,87.5,1015.42,0.34,1.8,0,0,0.032234
2020/03/10 03:34:00.006,n,149,5.4,4.68,6.12,18.5,87.4,1015.42,0.35,0.1,0,0,0.033951
2020/03/10 03:35:00.004,n,191,2.52,1.44,3.24,18.5,87.6,1015.42,0.35,0.1,0,0,0.036545
2020/03/10 03:36:00.003,n,163,5.4,4.68,6.48,18.6,87.7,1015.32,0.35,0,0,0,0.033951
2020/03/10 03:37:00.000,n,199,3.24,1.8,3.6,18.6,87.7,1015.32,0.35,0,0,0,0.032234
2020/03/10 03:38:00.000,n,147,1.08,0.72,1.44,18.6,87.7,1015.42,0.35,0,0,0,0.033073
2020/03/10 03:39:00.000,n,150,2.16,1.44,3.6,18.6,87.8,1015.42,0.35,0,0,0,0.032234
2020/03/10 03:40:00.000,n,178,3.96,1.44,6.48,18.6,87.7,1015.42,0.35,0,0,0,0.033951
2020/03/10 03:41:00.005,n,143,2.52,1.8,3.24,18.6,87.7,1015.42,0.35,0,0,0,0.033951
2020/03/10 03:42:00.002,n,194,5.04,3.96,5.76,18.6,87.6,1015.42,0.36,0.4,0,0,0.033951
2020/03/10 03:43:00.008,n,179,8.28,7.56,9.36,18.6,87.6,1015.42,0.36,0,0,0,0.033951
2020/03/10 03:44:00.000,n,143,4.32,3.96,4.68,18.6,87.7,1015.42,0.38,1.4,0,0,0.033073
2020/03/10 03:45:00.005,n,177,9.36,8.64,10.08,18.6,87.7,1015.42,0.39,0.2,0,0,0.034828
2020/03/10 03:46:00.000,n,190,6.48,5.76,7.92,18.6,87.7,1015.42,0.39,0.3,0,0,0.035667
2020/03/10 03:47:00.002,n,194,6.84,6.12,7.92,18.6,87.8,1015.42,0.39,0,0,0,0.035667
2020/03/10 03:48:00.000,n,193,4.68,3.96,5.76,18.6,87.7,1015.42,0.4,0,0,0,0.034828
2020/03/10 03:49:00.000,n,225,5.4,5.04,5.76,18.6,87.7,1015.42,0.4,0.3,0,0,0.035667
2020/03/10 03:50:00.003,n,190,5.04,4.68,6.48,18.6,87.7,1015.42,0.4,0,0,0,0.033073
2020/03/10 03:51:00.009,n,195,6.48,5.76,7.56,18.6,87.7,1015.42,0.4,0,0,0,0.031319
2020/03/10 03:52:00.000,n,189,5.4,5.04,5.76,18.6,87.7,1015.42,0.4,0,0,0,0.033951
2020/03/10 03:53:00.005,n,151,4.32,3.6,5.04,18.6,87.8,1015.52,0.4,0,0,0,0.035667
2020/03/10 03:54:00.011,n,172,6.12,5.04,6.84,18.6,87.9,1015.52,0.4,0,0,0,0.031319
2020/03/10 03:55:00.000,n,187,3.96,3.24,4.68,18.6,87.9,1015.52,0.4,0,0,0,0.035667
2020/03/10 03:56:00.000,n,174,3.24,1.44,4.32,18.6,87.9,1015.52,0.4,0,0,0,0.033073
2020/03/10 03:57:00.000,n,181,6.48,5.4,7.56,18.6,87.9,1015.52,0.4,0.1,0,0,0.033951
2020/03/10 03:58:00.002,n,196,7.2,6.84,7.56,18.6,87.9,1015.52,0.41,0.1,0,0,0.028725
2020/03/10 03:59:00.000,n,177,11.52,11.16,11.88,18.6,87.9,1015.52,0.41,0.4,0,0,0.03746
2020/03/10 04:00:00.000,n,190,12.6,10.8,13.68,18.6,87.9,1015.52,0.42,0,0,0,0.034828
2020/03/10 04:01:00.005,n,185,7.2,6.48,7.92,18.6,87.8,1015.52,0.42,0.3,0,0,0.035667
2020/03/10 04:02:00.012,n,192,5.04,4.68,5.4,18.6,87.8,1015.52,0.42,0,0,0,0.034828
2020/03/10 04:03:00.001,n,188,7.2,6.84,7.56,18.6,87.8,1015.52,0.42,0,0,0,0.035667
2020/03/10 04:04:00.000,n,157,3.96,2.88,5.4,18.6,87.9,1015.52,0.42,0,0,0,0.036545
2020/03/10 04:05:00.000,n,182,2.16,2.16,2.52,18.6,87.9,1015.52,0.42,0,0,0,0.034828
2020/03/10 04:06:00.002,n,265,1.8,1.8,2.16,18.6,88,1015.62,0.42,0,0,0,0.03746
2020/03/10 04:07:00.000,n,251,3.96,3.24,4.68,18.6,88.1,1015.52,0.42,0,0,0,0.033951
2020/03/10 04:08:00.000,n,139,0.72,0.36,1.44,18.6,88.1,1015.62,0.42,0,0,0,0.033951
2020/03/10 04:09:00.003,n,188,5.76,5.04,6.48,18.7,88,1015.52,0.42,0,0,0,0.035667
2020/03/10 04:10:00.009,n,179,3.96,3.6,4.68,18.6,87.9,1015.52,0.42,0,0,0,0.03746
2020/03/10 04:11:00.000,n,193,1.44,1.44,2.52,18.6,87.9,1015.52,0.42,0,0,0,0.034828
2020/03/10 04:12:00.003,n,107,3.6,3.24,3.96,18.6,88,1015.52,0.42,0,0,0,0.034828
2020/03/10 04:13:00.000,n,148,6.12,5.76,6.48,18.7,87.9,1015.52,0.42,0,0,0,0.035667
2020/03/10 04:14:00.000,n,235,4.68,4.32,5.04,18.7,87.9,1015.52,0.42,0,0,0,0.035667
2020/03/10 04:15:00.004,n,168,7.56,7.56,7.92,18.7,87.9,1015.52,0.42,0,0,0,0.03746
2020/03/10 04:16:00.000,n,176,6.48,5.76,7.56,18.6,87.7,1015.52,0.42,0,0,0,0.035667
2020/03/10 04:17:00.000,n,167,1.8,0.72,4.32,18.6,87.7,1015.62,0.42,0,0,0,0.035667
2020/03/10 04:18:00.005,n,16,1.44,0.72,2.52,18.6,87.9,1015.62,0.42,0,0,0,0.035667
2020/03/10 04:19:00.011,n,123,2.16,1.44,3.6,18.7,88.1,1015.72,0.42,0,0,0,0.034828
2020/03/10 04:20:00.001,n,184,8.28,7.2,9,18.7,87.8,1015.72,0.42,0,0,0,0.03746
2020/03/10 04:21:00.006,n,198,10.440002,9.72,11.16,18.7,87.6,1015.72,0.42,0,0,0,0.0383
2020/03/10 04:22:00.000,n,191,5.76,4.68,6.12,18.6,87.6,1015.72,0.42,0,0,0,0.036545
2020/03/10 04:23:00.000,n,117,2.16,2.16,2.52,18.6,87.7,1015.72,0.42,0,0,0,0.039177
2020/03/10 04:24:00.000,n,149,8.64,6.12,9.72,18.7,87.7,1015.72,0.42,0,0,0,0.03746
2020/03/10 04:25:00.000,n,174,9,6.84,11.16,18.7,87.7,1015.72,0.42,0,0,0,0.03746
2020/03/10 04:26:00.001,n,157,7.2,6.12,7.92,18.6,87.2,1015.72,0.42,0,0,0,0.034828
2020/03/10 04:27:00.007,n,121,5.4,3.24,6.84,18.6,87.4,1015.72,0.42,0,0,0,0.036545
2020/03/10 04:28:00.012,n,150,8.28,6.48,9.36,18.6,87.4,1015.82,0.42,0,0,0,0.034828
2020/03/10 04:29:00.002,n,154,4.68,2.52,7.2,18.6,87.4,1015.82,0.42,0,0,0,0.040054
2020/03/10 04:30:00.008,n,121,3.6,2.16,5.04,18.6,87.2,1015.82,0.42,0,0,0,0.036545
2020/03/10 04:31:00.000,n,98,7.92,6.84,9,18.6,86.8,1015.72,0.42,0,0,0,0.034828
2020/03/10 04:32:00.003,n,148,12.96,11.16,15.84,18.5,86.6,1015.72,0.42,0,0,0,0.03746
2020/03/10 04:33:00.000,n,159,5.4,2.88,8.28,18.5,86.5,1015.72,0.42,0,0,0,0.030479
2020/03/10 04:34:00.000,n,124,13.32,11.52,16.56,18.5,86.4,1015.72,0.42,0,0,0,0.035667
2020/03/10 04:35:00.005,n,143,6.48,2.52,8.64,18.5,86.3,1015.72,0.42,0,0,0,0.041809
2020/03/10 04:36:00.011,n,118,8.28,7.92,8.64,18.5,86.1,1015.72,0.42,0,0,0,0.040054
2020/03/10 04:37:00.001,n,74,4.68,3.96,5.4,18.5,86.2,1015.82,0.42,0,0,0,0.036545
2020/03/10 04:38:00.006,n,147,6.48,3.96,9,18.5,85.8,1015.82,0.43,0,0,0,0.036545
2020/03/10 04:39:00.014,n,159,8.64,6.12,10.440002,18.5,85.6,1015.82,0.43,0.6,0,0,0.033073
2020/03/10 04:40:00.000,n,145,11.16,10.440002,11.52,18.5,85.6,1015.82,0.43,0,0,0,0.03746
2020/03/10 04:41:00.000,n,125,5.04,3.96,6.12,18.5,85.7,1015.82,0.43,0,0,0,0.040054
2020/03/10 04:42:00.000,n,143,10.08,2.88,13.32,18.5,85.4,1015.72,0.43,0,0,0,0.034828
2020/03/10 04:43:00.004,n,150,8.64,7.56,10.8,18.5,85.4,1015.72,0.43,0,0,0,0.033073